Temperature
26 26 25 24 24 25 26 26 27 27 27 27 26 27 28 28 28 27 26 25 24 23 22 21 21 20 20 19 19 18 18 17 17 17 17 16 16 16 16 16 16 16 15 15
25 26 26 25 25 25 26 27 27 28 28 28 28 28 28 28 28 27 26 25 24 23 22 22 21 21 20 19 19 19 18 18 17 17 17 16 16 16 16 16 16 16 16 16
24 26 26 25 25 26 26 27 28 27 28 28 27 28 29 28 28 27 26 26 25 24 23 22 21 21 20 20 19 19 18 18 17 17 17 17 16 16 16 16 16 16 16 16
23 24 23 26 28 27 27 28 29 29 29 28 28 28 28 28 27 27 27 26 25 24 23 22 22 21 21 20 19 19 18 18 18 17 17 17 16 16 16 16 16 16 16 16
22 23 24 26 27 26 25 26 28 28 28 28 28 27 27 26 26 26 26 26 25 24 24 23 22 21 21 20 20 19 19 18 18 18 17 17 17 16 16 16 16 16 16 16
22 22 22 24 24 24 25 25 27 27 27 27 27 26 25 25 25 25 25 25 24 24 24 23 22 22 21 20 20 19 19 18 18 18 17 17 17 17 16 16 16 16 15 15
21 22 23 22 23 24 23 22 24 25 26 26 25 24 24 24 24 23 23 23 24 24 23 23 22 22 21 20 20 20 19 19 18 18 17 17 17 17 16 16 16 15 15 15
21 21 21 21 22 21 20 21 23 23 24 24 24 24 23 23 22 22 22 22 22 22 22 22 21 21 20 20 20 19 19 18 18 18 17 17 16 16 16 16 15 15 15 15
20 20 20 20 19 19 20 21 22 23 23 23 23 23 22 22 21 21 21 21 21 21 21 20 20 20 19 19 19 19 19 18 17 17 17 16 16 16 16 15 15 15 15 15
19 19 19 19 20 20 20 21 22 22 22 22 22 21 21 20 20 20 20 20 20 20 19 19 19 19 19 19 18 18 18 17 17 16 16 16 16 15 15 15 15 15 14 15
19 19 18 19 19 20 20 21 21 21 21 21 21 20 20 19 19 18 18 18 18 18 18 18 18 18 18 18 17 17 17 17 16 16 16 15 15 15 15 15 15 15 15 14
18 18 18 18 19 20 20 20 20 20 20 20 19 19 19 18 18 17 17 17 17 17 17 17 17 17 17 16 16 16 16 16 15 15 15 15 14 14 14 14 14 14 14 14
18 18 18 18 19 19 19 19 19 19 19 18 18 18 17 17 16 16 16 16 16 16 16 16 15 15 15 15 15 15 15 15 15 15 14 14 14 14 14 14 14 14 14 14
18 18 17 18 18 18 18 18 18 18 17 17 17 16 16 16 16 15 15 15 15 15 15 14 14 14 14 14 14 14 14 14 14 14 14 14 14 14 14 14 14 14 14 14
17 17 17 17 17 17 17 17 17 17 16 16 15 15 15 15 14 14 14 14 14 14 14 13 13 13 13 13 13 13 13 14 14 13 13 13 13 14 14 13 13 13 13 13
16 17 16 16 16 16 16 16 16 15 15 15 14 14 14 14 13 13 13 13 13 13 13 13 12 12 12 12 13 13 13 13 13 13 13 13 13 13 13 13 13 13 13 12
16 16 16 15 15 15 15 15 14 14 14 14 14 13 13 13 13 13 12 12 12 12 12 12 12 12 12 12 12 12 12 12 12 12 13 13 12 12 12 12 12 12 12 12
15 15 15 15 14 14 14 14 14 14 13 13 13 13 13 12 12 12 12 12 12 12 12 11 12 12 12 12 12 12 12 12 12 12 12 12 12 12 12 12 12 12 12 12
14 14 14 14 14 13 13 13 13 13 13 13 12 12 12 12 12 12 12 11 12 11 11 11 11 11 11 11 11 11 11 12 12 12 12 12 12 12 11 11 11 11 11 11
13 13 13 13 13 13 13 12 12 12 12 12 12 12 12 12 11 11 11 11 11 11 11 11 11 11 11 11 11 11 11 11 11 11 11 11 11 11 11 11 11 10 10 10
13 13 13 13 13 12 12 13 13 12 12 12 12 12 12 12 12 11 11 11 11 11 11 11 11 11 11 11 11 11 11 11 11 11 11 10 10 10 10 10 9 9 9 9
12 12 12 12 13 12 12 12 12 12 12 12 12 12 12 12 12 12 11 11 11 11 11 11 10 10 10 10 10 10 10 10 10 10 10 9 9 9 9 9 8 8 8 8
12 12 12 12 12 12 12 12 12 12 12 12 12 12 12 12 12 12 11 11 11 11 10 10 10 10 10 9 9 9 9 9 9 9 9 8 8 8 8 8 8 7 7 7
12 12 12 12 12 12 12 12 12 12 12 12 12 12 11 12 11 11 11 11 10 10 10 10 10 9 9 9 9 9 9 8 8 8 8 8 8 7 7 7 7 6 6 6
11 11 11 11 12 12 12 12 12 12 12 12 12 11 11 11 11 11 10 10 10 10 10 9 9 9 9 8 8 8 8 8 7 7 7 7 7 7 6 6 6 6 5 5
11 11 11 11 11 11 12 12 12 12 12 11 11 11 11 10 10 10 10 10 10 9 9 9 9 8 8 8 8 8 7 7 7 7 6 6 6 6 5 5 5 5 4 4
11 11 11 11 11 11 11 11 11 11 11 10 10 10 10 10 10 9 9 9 9 9 9 8 8 8 7 7 7 7 6 6 6 6 6 5 5 5 5 4 4 4 4 4
Wind_Speed
14 11 8 10 12 13 15 15 13 10 6 3 5 6 9 11 14 17 18 17 17 17 15 15 15 14 14 15 14 14 14 13 12 12 11 10 9 10 9 9 10 8 8 7
16 14 12 12 14 16 19 17 17 13 9 6 5 7 10 12 14 15 17 18 18 18 17 16 16 15 15 14 14 14 14 13 12 12 12 11 10 10 10 9 9 9 8 8
13 13 12 14 15 16 15 16 15 13 9 4 4 6 8 9 11 13 15 16 17 17 17 15 15 14 14 14 13 14 13 13 13 13 12 12 13 11 11 10 9 9 9 8
10 11 14 11 11 11 12 14 12 7 5 3 3 2 3 5 7 9 12 14 15 15 16 16 15 15 14 14 14 14 13 13 13 12 12 12 11 11 10 9 9 8 8 8
9 11 12 12 8 6 8 8 4 1 1 2 2 3 3 4 3 3 5 7 9 13 17 15 15 15 14 14 15 15 15 13 13 13 12 12 11 10 9 8 8 8 8 8
9 9 10 7 8 10 7 4 6 3 1 1 2 2 3 4 4 2 2 3 6 9 12 14 15 15 15 15 15 15 14 13 12 11 11 11 10 9 8 7 8 8 8 9
12 11 7 5 7 8 3 2 7 6 4 6 5 4 4 5 5 4 4 3 5 7 6 7 11 12 13 12 12 11 10 10 10 10 9 9 9 7 7 7 7 8 7 7
7 9 5 7 5 2 1 4 5 6 5 7 6 6 6 7 7 6 5 5 5 6 6 6 8 10 10 9 9 9 9 9 9 9 9 9 8 7 7 7 7 7 7 7
2 2 3 5 4 3 3 2 3 3 4 5 5 7 7 8 7 6 6 6 5 7 8 7 7 8 8 6 7 7 8 8 7 7 6 6 7 8 7 6 7 7 7 7
3 4 5 5 4 4 2 2 2 3 5 5 7 7 7 8 7 7 7 7 7 7 8 7 6 6 5 5 7 7 7 7 6 6 5 4 4 4 5 5 6 5 5 5
3 3 5 5 4 4 6 7 7 7 8 8 8 8 9 8 8 8 8 7 7 7 8 8 7 6 5 5 6 6 6 6 5 5 5 4 3 3 3 3 3 4 4 3
2 2 3 5 6 5 6 7 6 8 9 10 9 10 10 10 9 9 9 9 8 8 8 8 8 7 6 5 6 6 5 4 4 4 3 3 4 4 5 6 7 7 5 3
2 2 3 4 5 5 6 8 7 9 10 10 11 12 12 12 11 11 10 10 9 9 9 9 9 8 7 6 5 5 4 3 2 3 3 3 4 4 4 5 8 9 8 8
4 2 2 3 4 6 8 8 9 11 12 13 12 13 12 13 13 12 11 10 10 11 10 10 10 8 7 6 5 4 3 4 1 0 1 2 2 2 2 2 2 4 8 13
5 3 3 5 7 8 8 9 11 12 13 13 13 13 13 13 13 12 11 10 10 11 11 10 10 8 7 6 5 4 3 3 2 2 2 1 2 3 3 3 4 4 4 4
4 5 7 7 8 9 10 11 12 12 13 13 13 13 12 12 12 12 11 10 10 10 10 9 8 7 6 6 5 4 3 4 2 2 3 3 3 3 4 4 4 4 5 3
5 5 6 8 9 10 11 11 11 11 12 13 12 11 11 11 11 11 10 9 8 8 8 7 7 6 5 5 4 2 2 1 1 3 3 3 3 4 4 5 5 5 5 2
7 7 8 8 9 10 11 11 11 10 10 10 11 11 10 10 9 8 8 7 8 8 8 7 7 5 5 5 4 3 3 2 2 3 3 3 4 5 5 6 7 7 5 4
10 11 10 11 11 10 10 9 9 9 9 9 9 8 8 8 7 6 5 5 5 6 5 5 5 3 3 4 5 3 4 4 4 3 3 3 4 5 6 6 6 6 6 6
11 11 11 11 10 9 8 7 7 7 7 7 7 7 6 6 5 4 3 3 3 4 3 3 2 2 3 5 5 5 5 5 5 5 5 5 5 6 7 7 8 8 7 6
9 9 9 9 9 7 6 6 6 6 5 6 5 5 4 3 2 2 2 3 4 4 2 2 2 3 4 6 7 6 6 6 6 6 6 6 6 7 7 7 7 7 8 7
7 7 7 7 7 6 5 4 4 5 5 5 4 4 3 2 1 1 2 3 4 4 2 2 3 5 6 7 6 6 7 7 6 6 6 6 7 7 7 8 7 7 7 8
7 7 6 5 5 4 4 4 4 4 4 3 3 3 2 2 2 2 2 3 4 3 3 3 3 3 6 6 6 6 6 6 6 6 6 6 7 7 7 8 7 7 7 8
6 6 5 5 4 4 4 4 3 2 2 2 2 3 2 2 2 2 2 3 3 2 3 2 2 2 5 5 6 6 6 6 6 6 7 7 8 8 7 8 8 8 8 10
4 3 3 3 2 2 1 0 0 1 1 2 3 4 4 3 3 4 3 2 1 0 2 1 3 4 5 6 5 5 5 5 6 7 7 7 8 8 8 8 8 8 8 8
3 2 3 3 3 3 2 2 3 3 3 3 3 3 4 4 4 3 3 4 4 3 4 3 2 3 4 5 5 5 6 6 6 6 7 7 8 8 8 8 10 8 8 8
1 1 1 2 2 3 4 4 3 3 3 3 3 3 4 4 4 5 6 6 5 4 4 4 4 3 4 4 5 6 6 6 6 6 7 7 7 7 8 9 8 8 8 8
Wind_Direction
258 245 237 257 267 275 272 265 268 269 260 225 202 182 180 174 167 168 171 173 169 169 172 173 174 174 177 179 179 178 179 184 182 183 183 184 181 179 182 189 196 192 196 202
262 253 243 240 238 245 255 257 257 259 257 217 187 197 192 175 172 173 175 178 175 174 173 175 177 178 180 180 180 177 182 186 182 183 184 187 186 185 187 194 200 194 199 206
267 268 268 250 240 242 245 248 247 252 251 198 193 220 184 166 175 178 181 181 180 178 177 177 179 178 180 180 178 180 184 187 183 185 187 189 192 190 192 195 199 203 204 211
270 269 257 260 255 255 259 254 245 241 222 187 184 188 152 156 175 187 183 183 181 181 180 179 179 177 180 181 181 183 186 188 184 187 189 189 193 192 191 193 199 205 209 215
259 260 264 271 280 301 289 285 287 212 144 134 162 140 112 96 131 174 182 174 177 182 181 177 177 176 178 183 183 186 190 191 187 188 189 188 192 191 189 192 199 204 208 216
245 252 256 286 321 322 307 289 349 38 55 92 112 170 105 83 92 111 144 163 175 184 180 174 175 174 180 186 187 190 190 189 183 183 186 189 191 190 189 193 202 208 213 215
248 251 255 323 317 330 298 313 353 7 48 72 70 70 72 68 80 76 73 93 137 144 150 157 164 167 176 183 187 185 180 176 175 178 182 184 186 185 185 196 208 217 224 220
250 247 250 358 356 5 343 335 13 19 37 76 81 75 74 73 74 78 82 90 113 118 119 122 137 153 165 176 176 168 165 167 169 169 181 186 179 181 188 200 210 220 228 236
301 294 10 1 19 356 301 333 22 27 50 73 87 82 74 75 75 72 78 85 91 108 109 113 124 139 152 151 143 143 143 146 148 154 167 165 174 184 194 205 221 228 227 234
327 350 352 344 352 322 309 48 35 48 63 75 86 87 87 83 75 73 72 77 83 96 105 103 107 113 122 125 131 133 138 141 144 154 165 160 164 183 198 210 222 233 241 245
309 328 335 322 329 340 15 31 39 58 64 69 80 86 90 85 78 76 75 75 81 89 97 101 99 98 100 106 117 126 131 135 146 158 162 168 173 182 190 207 204 220 246 260
309 315 303 303 329 353 28 39 45 62 63 63 71 78 82 84 81 80 79 77 79 82 89 95 96 91 85 94 110 120 127 132 146 157 164 181 189 209 215 219 199 204 216 230
343 342 318 322 355 27 46 48 54 68 70 71 72 76 80 79 77 76 76 79 82 86 87 87 87 81 73 74 90 109 124 132 152 164 176 200 211 215 217 221 223 231 232 231
35 33 22 13 33 61 71 70 73 74 73 75 77 77 79 80 78 75 73 74 78 81 83 83 80 75 70 72 74 79 100 107 98 132 213 232 229 248 256 256 242 246 235 230
27 46 71 67 66 72 74 79 83 80 78 76 75 74 75 77 77 74 72 73 75 76 76 78 77 70 64 66 65 57 57 67 49 10 338 322 305 299 297 296 288 279 276 235
42 66 74 76 75 74 75 77 81 80 80 79 77 76 77 79 78 75 71 70 73 73 71 71 69 63 60 59 56 53 58 63 46 337 306 295 288 291 296 296 293 293 292 299
73 74 85 88 83 79 76 73 77 77 76 77 79 79 80 81 79 74 72 72 75 76 76 76 69 56 49 44 36 29 32 45 269 286 300 325 332 326 318 306 302 300 298 303
81 87 87 92 92 86 85 82 81 80 79 79 78 75 74 74 75 74 72 72 75 70 64 63 59 48 36 30 15 2 356 334 306 316 327 329 321 308 303 303 300 298 299 297
75 80 81 85 86 84 85 84 82 80 78 78 79 78 79 79 78 81 82 78 82 81 68 63 51 27 22 25 359 325 316 317 319 316 308 304 295 298 301 299 303 308 312 318
76 79 83 88 90 89 87 86 86 89 92 94 93 89 81 75 71 67 68 71 71 76 78 64 29 10 21 18 344 320 320 324 321 317 313 312 314 315 315 317 321 323 323 321
83 85 90 90 87 85 87 94 96 97 95 96 96 97 98 94 92 80 63 81 79 60 47 60 25 15 23 350 317 324 331 328 323 322 326 325 323 321 320 320 321 322 321 321
93 90 88 88 90 90 90 87 83 81 81 80 77 77 83 84 63 61 64 74 89 62 11 16 36 36 6 335 327 325 324 323 328 331 329 327 326 324 321 319 319 323 323 321
80 77 74 72 75 81 87 81 70 65 61 55 43 35 31 21 17 17 47 67 68 54 3 23 58 29 341 325 320 318 322 326 328 330 330 329 325 320 321 320 321 322 319 318
66 60 56 56 58 62 61 54 47 36 29 28 38 37 12 7 23 24 48 84 79 55 340 92 148 316 311 313 318 326 334 340 342 340 335 331 324 321 321 321 322 323 322 322
48 38 41 23 18 39 52 319 312 2 355 25 25 36 23 21 13 11 3 14 93 304 313 197 218 266 297 319 331 341 344 349 342 331 326 327 325 326 328 332 334 329 324 322
29 3 16 349 348 328 337 16 16 4 4 15 9 16 13 360 351 348 338 333 335 319 313 328 318 283 310 327 338 342 339 338 332 328 334 335 333 334 334 337 333 328 325 323
16 350 326 338 8 7 5 8 360 357 2 2 356 356 346 341 338 341 338 334 333 330 330 331 335 338 339 341 346 348 345 340 338 342 341 340 339 336 335 334 330 326 326 324
Height
1434 1432 1436 1442 1439 1437 1437 1434 1437 1431 1430 1430 1427 1426 1428 1431 1435 1442 1448 1454 1459 1465 1470 1476 1481 1486 1490 1494 1498 1502 1505 1509 1512 1515 1518 1520 1522 1524 1526 1528 1530 1532 1533 1535
1433 1428 1430 1436 1434 1434 1433 1427 1426 1423 1424 1419 1419 1423 1426 1429 1433 1438 1445 1450 1456 1461 1467 1472 1477 1481 1486 1490 1495 1498 1502 1506 1509 1512 1514 1517 1519 1521 1523 1525 1527 1529 1530 1532
1438 1427 1427 1435 1428 1427 1424 1419 1418 1422 1418 1415 1419 1421 1423 1426 1431 1435 1441 1446 1452 1457 1462 1467 1472 1477 1482 1486 1491 1495 1498 1502 1505 1508 1511 1513 1516 1518 1520 1522 1524 1525 1527 1529
1438 1437 1447 1424 1411 1413 1414 1410 1408 1409 1410 1412 1416 1420 1422 1425 1429 1433 1438 1442 1448 1452 1457 1463 1468 1473 1478 1483 1487 1491 1494 1498 1501 1504 1507 1509 1512 1514 1516 1518 1520 1522 1523 1525
1441 1441 1434 1419 1411 1414 1417 1415 1405 1407 1409 1412 1415 1418 1422 1426 1429 1432 1435 1439 1444 1449 1454 1458 1464 1469 1474 1479 1483 1486 1490 1493 1496 1499 1502 1505 1507 1510 1512 1514 1516 1518 1519 1520
1439 1444 1442 1425 1416 1414 1415 1420 1410 1409 1412 1413 1415 1422 1426 1427 1429 1431 1434 1437 1441 1446 1450 1454 1459 1464 1469 1474 1478 1481 1484 1488 1492 1495 1498 1501 1503 1506 1508 1510 1512 1514 1515 1516
1437 1437 1429 1423 1418 1416 1430 1430 1417 1415 1415 1416 1420 1424 1427 1428 1430 1432 1434 1437 1439 1443 1446 1450 1455 1459 1464 1468 1472 1476 1480 1484 1487 1490 1493 1497 1500 1502 1505 1507 1509 1510 1511 1512
1436 1439 1437 1425 1421 1427 1430 1424 1419 1419 1419 1420 1422 1425 1427 1429 1431 1433 1435 1437 1439 1441 1445 1448 1452 1456 1460 1464 1468 1472 1476 1480 1483 1486 1490 1493 1496 1498 1500 1502 1504 1506 1507 1507
1435 1436 1430 1428 1427 1428 1426 1423 1422 1422 1422 1422 1424 1426 1429 1430 1433 1435 1436 1438 1440 1442 1444 1448 1451 1455 1458 1462 1466 1469 1473 1476 1480 1483 1486 1489 1491 1494 1496 1498 1500 1502 1503 1503
1433 1431 1431 1430 1428 1426 1425 1425 1424 1423 1424 1425 1426 1428 1430 1433 1435 1437 1439 1440 1442 1443 1445 1448 1451 1454 1457 1461 1464 1467 1470 1474 1477 1480 1483 1486 1489 1491 1493 1495 1496 1497 1499 1499
1435 1434 1433 1431 1430 1429 1426 1426 1426 1426 1427 1427 1429 1430 1433 1435 1437 1439 1440 1442 1444 1445 1447 1450 1452 1454 1457 1460 1463 1466 1469 1472 1475 1479 1481 1483 1486 1487 1489 1491 1492 1493 1494 1495
1436 1435 1436 1434 1431 1430 1429 1429 1429 1429 1429 1431 1432 1434 1436 1438 1440 1442 1443 1444 1446 1447 1449 1451 1453 1456 1458 1461 1463 1466 1469 1471 1474 1477 1479 1481 1483 1485 1486 1488 1489 1490 1490 1491
1434 1434 1434 1433 1432 1431 1432 1432 1433 1433 1434 1435 1436 1437 1439 1441 1443 1445 1446 1448 1449 1450 1452 1453 1455 1457 1459 1462 1464 1466 1468 1471 1473 1475 1477 1479 1481 1483 1483 1484 1485 1486 1486 1486
1435 1436 1436 1434 1434 1434 1435 1436 1437 1437 1438 1439 1440 1442 1443 1444 1446 1448 1450 1451 1452 1453 1455 1456 1457 1459 1461 1463 1465 1467 1469 1471 1473 1475 1476 1478 1479 1480 1480 1481 1481 1481 1481 1480
1437 1437 1438 1437 1437 1438 1439 1440 1441 1442 1443 1443 1445 1446 1448 1449 1450 1452 1454 1455 1456 1457 1458 1459 1460 1462 1463 1465 1466 1468 1470 1471 1473 1474 1475 1476 1477 1477 1478 1478 1478 1478 1477 1477
1439 1439 1440 1440 1440 1441 1443 1444 1445 1446 1447 1448 1449 1451 1452 1454 1455 1456 1458 1459 1459 1460 1462 1463 1464 1465 1466 1467 1468 1469 1470 1471 1472 1473 1474 1474 1475 1475 1476 1475 1475 1474 1474 1473
1441 1442 1443 1443 1444 1445 1447 1448 1449 1451 1452 1452 1454 1456 1457 1458 1459 1460 1461 1462 1463 1464 1465 1466 1466 1467 1467 1468 1469 1470 1471 1471 1472 1472 1472 1473 1473 1473 1473 1472 1472 1471 1470 1469
1444 1445 1446 1447 1448 1449 1451 1453 1454 1455 1456 1458 1459 1460 1461 1462 1463 1464 1465 1465 1466 1467 1468 1468 1469 1469 1469 1469 1470 1471 1471 1472 1472 1472 1471 1471 1471 1470 1470 1469 1468 1467 1466 1465
1447 1448 1449 1450 1452 1454 1455 1456 1458 1459 1460 1462 1463 1464 1465 1466 1467 1468 1468 1469 1469 1470 1470 1470 1470 1470 1471 1470 1470 1471 1471 1471 1471 1470 1470 1469 1468 1468 1467 1466 1465 1464 1463 1461
1451 1452 1453 1455 1456 1457 1459 1460 1462 1463 1464 1465 1466 1466 1467 1468 1469 1470 1470 1471 1471 1471 1472 1472 1471 1471 1471 1471 1471 1471 1471 1470 1470 1469 1468 1467 1466 1465 1464 1463 1462 1460 1459 1457
1456 1457 1458 1459 1460 1461 1463 1464 1465 1466 1467 1467 1468 1469 1470 1471 1471 1471 1472 1472 1472 1472 1472 1472 1472 1471 1471 1470 1470 1470 1469 1468 1467 1467 1465 1464 1463 1462 1461 1460 1459 1457 1455 1453
1460 1461 1462 1462 1463 1465 1466 1467 1467 1468 1469 1470 1471 1471 1472 1472 1472 1472 1472 1473 1472 1472 1472 1472 1472 1471 1470 1469 1469 1468 1467 1466 1465 1464 1463 1461 1460 1459 1458 1456 1455 1453 1451 1449
1463 1464 1465 1465 1466 1467 1468 1469 1469 1470 1471 1471 1472 1472 1473 1473 1473 1473 1473 1473 1472 1472 1472 1471 1470 1469 1469 1468 1467 1466 1465 1464 1462 1461 1460 1458 1457 1455 1454 1452 1450 1448 1446 1444
1466 1467 1468 1468 1469 1469 1470 1470 1471 1471 1471 1472 1472 1472 1472 1472 1472 1472 1472 1472 1471 1471 1471 1470 1469 1468 1467 1466 1465 1464 1462 1461 1459 1458 1456 1455 1453 1452 1450 1448 1446 1444 1441 1439
1468 1469 1470 1470 1470 1470 1470 1471 1471 1471 1471 1471 1472 1472 1472 1472 1472 1472 1472 1471 1470 1469 1469 1467 1466 1465 1465 1464 1462 1461 1460 1458 1456 1455 1453 1452 1450 1448 1446 1443 1441 1439 1436 1434
1470 1470 1471 1471 1471 1471 1471 1471 1471 1471 1471 1471 1472 1471 1471 1471 1471 1471 1470 1470 1469 1467 1467 1466 1464 1463 1462 1461 1460 1458 1457 1455 1453 1452 1450 1448 1446 1444 1442 1439 1437 1434 1432 1429
1471 1471 1471 1471 1472 1472 1471 1471 1472 1472 1472 1471 1471 1471 1471 1471 1470 1469 1469 1468 1467 1466 1465 1464 1462 1461 1459 1458 1457 1455 1454 1452 1450 1449 1447 1445 1442 1440 1438 1435 1432 1430 1427 1425